TimePDT,TemperatureF,Dew PointF,Humidity,Sea Level PressureIn,VisibilityMPH,Wind Direction,Wind SpeedMPH,Gust SpeedMPH,PrecipitationIn,Events,Conditions,WindDirDegrees,DateUTC
12:56 AM,77.0,46.0,33,29.89,10.0,SW,9.2,-,N/A,,Clear,230,2013-07-13 07:56:00
1:56 AM,75.9,43.0,31,29.89,10.0,WSW,8.1,-,N/A,,Clear,240,2013-07-13 08:56:00
2:56 AM,72.0,44.1,37,29.89,10.0,West,4.6,-,N/A,,Clear,260,2013-07-13 09:56:00
3:56 AM,72.0,45.0,38,29.89,10.0,SW,3.5,-,N/A,,Clear,220,2013-07-13 10:56:00
4:56 AM,71.1,44.1,38,29.89,10.0,WSW,6.9,-,N/A,,Clear,250,2013-07-13 11:56:00
5:56 AM,66.0,42.1,42,29.91,10.0,Calm,Calm,-,N/A,,Clear,0,2013-07-13 12:56:00
6:56 AM,68.0,44.1,42,29.93,10.0,Calm,Calm,-,N/A,,Clear,0,2013-07-13 13:56:00
7:56 AM,75.9,44.1,32,29.94,10.0,Calm,Calm,-,N/A,,Clear,0,2013-07-13 14:56:00
8:56 AM,84.0,44.1,25,29.94,10.0,East,3.5,-,N/A,,Clear,80,2013-07-13 15:56:00
9:56 AM,89.1,42.1,19,29.92,10.0,Variable,3.5,-,N/A,,Clear,0,2013-07-13 16:56:00
10:56 AM,93.9,35.1,13,29.91,10.0,ESE,3.5,-,N/A,,Clear,110,2013-07-13 17:56:00
11:56 AM,98.1,36.0,11,29.89,10.0,West,8.1,-,N/A,,Clear,280,2013-07-13 18:56:00
12:56 PM,99.0,36.0,11,29.87,10.0,North,10.4,-,N/A,,Clear,350,2013-07-13 19:56:00
1:56 PM,100.0,37.0,11,29.86,10.0,West,11.5,17.3,N/A,,Clear,260,2013-07-13 20:56:00
2:56 PM,100.0,35.1,10,29.86,10.0,West,12.7,20.7,N/A,,Clear,280,2013-07-13 21:56:00
3:56 PM,100.9,37.9,11,29.83,10.0,West,18.4,28.8,N/A,,Clear,260,2013-07-13 22:56:00
4:56 PM,99.0,36.0,11,29.83,10.0,WSW,15.0,-,N/A,,Clear,240,2013-07-13 23:56:00
5:56 PM,98.1,37.9,12,29.83,10.0,West,18.4,26.5,N/A,,Clear,260,2013-07-14 00:56:00
6:56 PM,95.0,36.0,13,29.85,10.0,WNW,19.6,25.3,N/A,,Clear,300,2013-07-14 01:56:00
7:56 PM,91.0,37.9,15,29.85,10.0,WNW,11.5,-,N/A,,Clear,300,2013-07-14 02:56:00
8:56 PM,87.1,39.0,18,29.86,10.0,West,12.7,-,N/A,,Clear,280,2013-07-14 03:56:00
9:56 PM,84.0,37.9,19,29.88,10.0,WNW,10.4,-,N/A,,Clear,290,2013-07-14 04:56:00
10:56 PM,82.0,36.0,19,29.89,10.0,West,8.1,-,N/A,,Clear,270,2013-07-14 05:56:00
11:56 PM,80.1,36.0,20,29.89,10.0,West,10.4,-,N/A,,Clear,280,2013-07-14 06:56:00